Regional Weather Roundup
Issued by NWS Cleveland, OH

Home | Current Version | Previous Version | Graphics & Text | Print | Product List | Glossary On
Versions: 1 2 3 4 5 6 7 8 9 10 11 12 13 14 15 16 17 18 19 20 21 22 23 24 25 26 27 28 29 30 31 32 33 34 35 36 37 38 39 40 41 42 43 44 45 46 47 48 49 50
000
ASUS41 KCLE 221110
RWRCLE
OHIO REGIONAL WEATHER ROUNDUP
NATIONAL WEATHER SERVICE CLEVELAND, OH
600 AM EST WED NOV 22 2017

NOTE: "FAIR" INDICATES FEW OR NO CLOUDS BELOW 12,000 FEET WITH NO
SIGNIFICANT WEATHER AND/OR OBSTRUCTIONS TO VISIBILITY.

OHZ001>008-015>018-024>027-034-035-043-044-221200-
   NORTHWEST OHIO

CITY           SKY/WX    TMP DP  RH WIND       PRES   REMARKS
DEFIANCE       CLOUDY    32  19  58 N12       30.22R WCI  23
FINDLAY        CLOUDY    33  21  61 NW10      30.18R WCI  25
TOLEDO EXPRESS CLOUDY    33  21  61 N13       30.21R WCI  24
TOLEDO EXEC    CLOUDY    33  21  61 N6        30.21R WCI  28
LIMA           CLOUDY    32  23  69 N13       30.19R WCI  22
$$

OHZ009>014-019>023-028>033-038-089-221200-
   NORTHEAST OHIO

CITY           SKY/WX    TMP DP  RH WIND       PRES   REMARKS
CLE-HOPKINS    FLURRIES  35  27  72 NW13      30.16R WCI  26
CLE-LAKEFRONT  CLOUDY    36  25  64 NW18      30.13R
CUY CO. ARPT   NOT AVBL
LORAIN-ELYRIA  CLOUDY    33  21  61 N10       30.15R WCI  25
ASHTABULA      CLOUDY    34  27  75 NW12      30.10R WCI  25
AKRON-CANTON   FLURRIES  35  29  78 N15       30.10R WCI  25
WOOSTER        NOT AVBL
MANSFIELD      CLOUDY    32  26  78 NW9       30.13R WCI  24
YOUNGSTOWN     FLURRIES  34  31  88 NW13      30.07R WCI  25
$$

OHZ042-051>053-060>062-070>072-077>081-221200-
  SOUTHWEST OHIO

CITY           SKY/WX    TMP DP  RH WIND       PRES   REMARKS
CINC-COVINGTON CLEAR     29  25  85 NW9       30.22R WCI  20
CINC-LUNKEN    CLEAR     31  26  82 NW7       30.25R WCI  24
HAMILTON       CLEAR     30  26  85 W6        30.24R WCI  24
DAYTON         CLOUDY    31  28  89 NW8       30.20R WCI  23
WRIGHT-PAT AFB CLOUDY    31  27  83 W6        30.20R WCI  26
DAYTON GENERAL PTCLDY    29  24  82 NW7       30.19R WCI  22
WILMINGTON     CLEAR     29  27  92 NW6       30.19R WCI  23
$$

OHZ036-037-039>041-045>050-054>059-063>069-073>076-082>088-221200-
  CENTRAL AND SOUTHEAST OHIO

CITY           SKY/WX    TMP DP  RH WIND       PRES   REMARKS
COLUMBUS       MOCLDY    34  29  82 NW9       30.16R WCI  27
OSU AIRPORT    CLOUDY    34  26  72 NW14G22   30.16R WCI  25
BOLTON FIELD   CLOUDY    31  28  88 NW6       30.17R WCI  26
RICKENBACK AFB PTCLDY    31  29  92 NW7       30.17R WCI  25
NEWARK         MOCLDY    35  27  72 NW8       30.15R WCI  29
MARION         CLOUDY    33  26  75 NW9       30.17R WCI  25
LANCASTER      CLOUDY    33  29  85 NW7       30.16R WCI  27
ZANESVILLE     CLOUDY    36  30  79 NW10      30.14R
NEW PHILLY     NOT AVBL
$$




USA.gov is the U.S. government's official web portal to all federal, state and local government web resources and services.